Fort Bridger, WY

1:01 AM MST on February 06, 2016 (GMT -0700)
Fort Bridger

Weather History for KFBR - February, 2014

Change the Weather History Date:

Monday, February 17, 2014

  Actual Average (KEVW) Record (KEVW)
Temperature  
Mean Temperature 36 °F 23 °F  
Max Temperature 48 °F 31 °F 41 °F (2004)
Min Temperature 23 °F 15 °F -9 °F (2006)
Degree Days  
Heating Degree Days 30 42  
Month to date heating degree days 730  
Since 1 July heating degree days 5559  
Cooling Degree Days 0 0  
Month to date cooling degree days 0  
Year to date cooling degree days 0  
Moisture  
Dew Point 17 °F    
Average Humidity 50    
Maximum Humidity 80    
Minimum Humidity 27    
Precipitation  
Precipitation 0.00 in 0.02 in 0.06 in (2000)
Month to date precipitation 0.35  
Year to date precipitation 0.89  
Sea Level Pressure  
Sea Level Pressure 30.06 in    
Wind  
Wind Speed 14 mph (WSW)    
Max Wind Speed 29 mph    
Max Gust Speed 39 mph    
Visibility 10 miles    
Events      
T = Trace of Precipitation, MM = Missing Value Source: NWS Daily Summary

Daily Weather History Graph

Daily Weather History Graph

Search for Another Location

Airport or City:

Trip Planner

Search our weather history database for the weather conditions in past years. The results will help you decide how hot, cold, wet, or windy it might be!

Date:

Astronomy

Feb. 17, 2014 Rise Set
Actual Time 7:13 AM MST 5:58 PM MST
Civil Twilight 6:45 AM MST 6:26 PM MST
Nautical Twilight 6:13 AM MST 6:58 PM MST
Astronomical Twilight 5:41 AM MST 7:30 PM MST
Moon 8:58 PM MST (2/17) 8:13 AM MST (2/17)
Length of Visible Light 11h 40m
Length of Day
10h 44m
Waning Gibbous, 93% of the Moon is Illuminated
Feb 17
Waning Gibbous
Feb 22
Last Quarter
Mar 1
New
Mar 8
First Quarter
Mar 16
Full

Hourly Weather History & Observations

Time (MST) Temp. Windchill Dew Point Humidity Pressure Visibility Wind Dir Wind Speed Gust Speed Precip Events Conditions
12:15 AM 24.8 °F 11.1 °F 19.4 °F 80% 30.21 in 10.0 mi West 18.4 mph 24.2 mph N/A   Clear
12:35 AM 24.8 °F 10.7 °F 19.2 °F 79% 30.21 in 10.0 mi West 19.6 mph - N/A   Clear
12:55 AM 25.3 °F 13.6 °F 19.2 °F 78% 30.20 in 10.0 mi WSW 13.8 mph 24.2 mph N/A   Clear
1:15 AM 24.4 °F 11.5 °F 18.5 °F 78% 30.20 in 10.0 mi WSW 16.1 mph 20.7 mph N/A   Clear
1:35 AM 24.4 °F 13.0 °F 18.1 °F 77% 30.20 in 10.0 mi WSW 12.7 mph 19.6 mph N/A   Clear
1:55 AM 24.6 °F 10.9 °F 18.0 °F 76% 30.19 in 10.0 mi WSW 18.4 mph 24.2 mph N/A   Clear
2:15 AM 24.8 °F 10.7 °F 17.6 °F 74% 30.19 in 10.0 mi WSW 19.6 mph 25.3 mph N/A   Clear
2:35 AM 23.9 °F 10.3 °F 17.2 °F 76% 30.19 in 10.0 mi WSW 17.3 mph - N/A   Clear
2:55 AM 23.2 °F 9.8 °F 16.7 °F 76% 30.18 in 10.0 mi WSW 16.1 mph 21.9 mph N/A   Clear
3:15 AM 25.0 °F 11.3 °F 15.8 °F 68% 30.17 in 10.0 mi WSW 18.4 mph 25.3 mph N/A   Clear
3:35 AM 25.3 °F 11.8 °F 14.5 °F 64% 30.16 in 10.0 mi WSW 18.4 mph 23.0 mph N/A   Clear
3:55 AM 26.4 °F 13.2 °F 13.5 °F 58% 30.16 in 10.0 mi WSW 18.4 mph 23.0 mph N/A   Clear
4:15 AM 26.4 °F 14.5 °F 13.1 °F 57% 30.15 in 10.0 mi WSW 15.0 mph 24.2 mph N/A   Clear
4:35 AM 27.3 °F 15.2 °F 12.2 °F 53% 30.14 in 10.0 mi WSW 16.1 mph 24.2 mph N/A   Clear
4:55 AM 26.6 °F 14.7 °F 12.6 °F 55% 30.14 in 10.0 mi WSW 15.0 mph - N/A   Clear
5:15 AM 27.3 °F 16.1 °F 12.2 °F 53% 30.14 in 10.0 mi WSW 13.8 mph 19.6 mph N/A   Clear
5:35 AM 27.9 °F 16.3 °F 11.3 °F 50% 30.15 in 10.0 mi WSW 15.0 mph 21.9 mph N/A   Clear
5:55 AM 28.2 °F 16.3 °F 12.2 °F 51% 30.16 in 10.0 mi WSW 16.1 mph 21.9 mph N/A   Clear
6:15 AM 26.1 °F 16.2 °F 13.5 °F 59% 30.16 in 10.0 mi West 10.4 mph - N/A   Clear
6:35 AM 24.1 °F 14.4 °F 13.3 °F 63% 30.16 in 10.0 mi West 9.2 mph - N/A   Clear
6:55 AM 23.9 °F 18.0 °F 12.6 °F 62% 30.16 in 10.0 mi West 4.6 mph - N/A   Clear
7:15 AM 26.4 °F 16.6 °F 12.6 °F 56% 30.16 in 10.0 mi WSW 10.4 mph - N/A   Clear
7:35 AM 26.6 °F 20.0 °F 12.2 °F 55% 30.16 in 10.0 mi WSW 5.8 mph - N/A   Clear
7:55 AM 28.4 °F - 13.1 °F 53% 30.16 in 10.0 mi Calm Calm - N/A   Clear
8:15 AM 28.8 °F 25.0 °F 13.3 °F 52% 30.16 in 10.0 mi West 3.5 mph - N/A   Clear
8:35 AM 30.9 °F - 13.6 °F 49% 30.16 in 10.0 mi Calm Calm - N/A   Clear
8:55 AM 31.1 °F - 11.8 °F 45% 30.15 in 10.0 mi Calm Calm - N/A   Clear
9:15 AM 32.0 °F - 12.7 °F 45% 30.14 in 10.0 mi Calm Calm - N/A   Clear
9:35 AM 32.0 °F 28.7 °F 16.0 °F 52% 30.14 in 10.0 mi East 3.5 mph - N/A   Clear
9:55 AM 32.7 °F - 17.4 °F 53% 30.13 in 10.0 mi Calm Calm - N/A   Clear
10:15 AM 35.8 °F 31.9 °F 16.2 °F 45% 30.12 in 10.0 mi West 4.6 mph - N/A   Clear
10:35 AM 35.8 °F - 16.0 °F 45% 30.12 in 10.0 mi Calm Calm - N/A   Clear
10:55 AM 36.7 °F - 18.1 °F 47% 30.10 in 10.0 mi Calm Calm - N/A   Clear
11:15 AM 38.1 °F - 19.0 °F 46% 30.10 in 10.0 mi Calm Calm - N/A   Clear
11:35 AM 39.6 °F 36.3 °F 18.9 °F 43% 30.09 in 10.0 mi West 4.6 mph - N/A   Clear
11:55 AM 40.1 °F - 18.7 °F 42% 30.08 in 10.0 mi Calm Calm - N/A   Clear
12:15 PM 43.3 °F 39.9 °F 18.5 °F 37% 30.06 in 10.0 mi West 5.8 mph - N/A   Clear
12:35 PM 45.0 °F 38.2 °F 20.3 °F 38% 30.04 in 10.0 mi WSW 15.0 mph 21.9 mph N/A   Clear
12:55 PM 46.4 °F 38.5 °F 18.0 °F 32% 30.02 in 10.0 mi SW 21.9 mph 26.5 mph N/A   Clear
1:15 PM 46.8 °F - 17.6 °F 31% 30.01 in 10.0 mi SW 24.2 mph 34.5 mph N/A   Clear
1:35 PM 47.5 °F - 16.2 °F 29% 30.01 in 10.0 mi WSW 25.3 mph 33.4 mph N/A   Clear
1:55 PM 47.7 °F - 15.1 °F 27% 30.00 in 10.0 mi WSW 24.2 mph 38.0 mph N/A   Clear
2:15 PM 47.7 °F - 15.1 °F 27% 29.99 in 10.0 mi WSW 24.2 mph 38.0 mph N/A   Clear
2:35 PM 47.8 °F - 14.7 °F 27% 29.98 in 10.0 mi WSW 25.3 mph 36.8 mph N/A   Clear
2:55 PM 48.2 °F - 15.4 °F 27% 29.98 in 10.0 mi WSW 25.3 mph 34.5 mph N/A   Clear
3:15 PM 48.6 °F - 15.6 °F 27% 29.98 in 10.0 mi WSW 21.9 mph 31.1 mph N/A   Clear
3:35 PM 48.2 °F - 16.5 °F 28% 29.98 in 10.0 mi WSW 28.8 mph 39.1 mph N/A   Clear
3:55 PM 45.9 °F 37.6 °F 16.2 °F 30% 29.97 in 10.0 mi WSW 23.0 mph 32.2 mph N/A   Clear
4:15 PM 46.4 °F 38.7 °F 16.5 °F 30% 29.96 in 10.0 mi WSW 20.7 mph 28.8 mph N/A   Clear
4:35 PM 46.4 °F 38.3 °F 15.6 °F 29% 29.95 in 10.0 mi WSW 23.0 mph 33.4 mph N/A   Clear
4:55 PM 45.0 °F 37.1 °F 15.8 °F 31% 29.95 in 10.0 mi WSW 19.6 mph 28.8 mph N/A   Clear
5:15 PM 44.2 °F 36.2 °F 17.2 °F 34% 29.95 in 10.0 mi WSW 19.6 mph 27.6 mph N/A   Clear
5:35 PM 43.0 °F 34.8 °F 17.4 °F 36% 29.95 in 10.0 mi WSW 18.4 mph 24.2 mph N/A   Clear
5:55 PM 41.0 °F 32.2 °F 18.7 °F 41% 29.95 in 10.0 mi WSW 18.4 mph 25.3 mph N/A   Clear
6:15 PM 39.9 °F 30.5 °F 18.9 °F 43% 29.95 in 10.0 mi WSW 19.6 mph - N/A   Clear
6:35 PM 37.8 °F 29.0 °F 21.0 °F 51% 29.96 in 10.0 mi West 15.0 mph - N/A   Clear
6:55 PM 37.0 °F 27.7 °F 21.2 °F 53% 29.96 in 10.0 mi WSW 16.1 mph - N/A   Clear
7:15 PM 36.0 °F 28.0 °F 21.7 °F 56% 29.95 in 10.0 mi WSW 11.5 mph - N/A   Clear
7:35 PM 35.8 °F 26.9 °F 21.0 °F 55% 29.95 in 10.0 mi WSW 13.8 mph - N/A   Clear
7:55 PM 35.8 °F 26.5 °F 20.3 °F 53% 29.94 in 10.0 mi WSW 15.0 mph - N/A   Clear
8:15 PM 35.6 °F 26.6 °F 19.9 °F 53% 29.94 in 10.0 mi WSW 13.8 mph - N/A   Clear
8:35 PM 35.6 °F 27.1 °F 19.4 °F 52% 29.93 in 10.0 mi WSW 12.7 mph - N/A   Clear
8:55 PM 35.1 °F 26.4 °F 19.0 °F 52% 29.92 in 10.0 mi WSW 12.7 mph - N/A   Clear
9:15 PM 35.6 °F 27.5 °F 18.7 °F 50% 29.92 in 10.0 mi West 11.5 mph - N/A   Clear
9:35 PM 35.6 °F 27.1 °F 19.0 °F 51% 29.91 in 10.0 mi WSW 12.7 mph - N/A   Clear
9:55 PM 36.7 °F 28.0 °F 17.6 °F 46% 29.91 in 10.0 mi WSW 13.8 mph - N/A   Clear
10:15 PM 35.6 °F 27.5 °F 18.9 °F 51% 29.91 in 10.0 mi WSW 11.5 mph - N/A   Clear
10:35 PM 36.3 °F 28.9 °F 18.0 °F 47% 29.92 in 10.0 mi West 10.4 mph - N/A   Clear
10:55 PM 35.4 °F 26.8 °F 18.7 °F 51% 29.92 in 10.0 mi West 12.7 mph - N/A   Clear
11:15 PM 35.2 °F 26.6 °F 19.0 °F 52% 29.92 in 10.0 mi West 12.7 mph - N/A   Clear
11:35 PM 36.5 °F 28.2 °F 17.8 °F 47% 29.92 in 10.0 mi WSW 12.7 mph - N/A   Clear
11:55 PM 35.2 °F 27.6 °F 18.9 °F 51% 29.92 in 10.0 mi WSW 10.4 mph - N/A   Clear